Location: Roland
(31.1349°N, 85.4372°W)
Time: 05:12:37
(UTC+00:00)

Courier 1B - Pass Details

Date: 24 April 2021
Orbit: 962 x 1209 km, 28.3° (Epoch: 07 May)

Event Time Altitude Azimuth Distance (km) Brightness Sun altitude
Rises 17:08:47 0° 253° (WSW) 3,847 10.6 70.6°
Reaches altitude 10° 17:11:37 10° 251° (WSW) 2,855 10.1 70.8°
Maximum altitude 17:18:26 63° 171° (S) 1,108 10.5 71.3°
Drops below altitude 10° 17:24:55 10° 92° (E) 2,716 10.0 71.6°
Sets 17:27:32 0° 89° (E) 3,648 10.5 71.8°
